• în Republica Moldova
  • Lista ţărilor
  • Pe 7 zile
  • Temperatura apei
  • Hartă satelitară
  • Meteo pe hartă
  • Widget-uri
  • user-avatar
    Intrare

    Meteo pe oră la Saurimo

    Astăzi, 23 Februarie, Joi

    Timp Temperatura Precipitaţii Vânt Presiune Umiditate
    00:00 +21°C° 0 mm 1 m/s 670 mmHg 92%
    01:00 +21°C° 0 mm 1 m/s 670 mmHg 92%
    02:00 +21°C° 0,1 mm 1 m/s 670 mmHg 93%
    03:00 +20°C° 0,1 mm 1 m/s 669 mmHg 94%
    04:00 +20°C° 0,1 mm 1 m/s 669 mmHg 94%
    05:00 +21°C° 0 mm 1 m/s 670 mmHg 92%
    06:00 +21°C° 0 mm 1 m/s 670 mmHg 90%
    07:00 +21°C° 0 mm 2 m/s 671 mmHg 86%
    08:00 +24°C° 0,1 mm 2 m/s 671 mmHg 79%
    09:00 +26°C° 0,1 mm 2 m/s 671 mmHg 72%
    10:00 +27°C° 0,1 mm 3 m/s 671 mmHg 64%
    11:00 +27°C° 0,5 mm 3 m/s 671 mmHg 66%
    12:00 +27°C° 0,5 mm 2 m/s 671 mmHg 67%
    13:00 +27°C° 0 mm 3 m/s 670 mmHg 68%
    14:00 +27°C° 0,1 mm 2 m/s 670 mmHg 65%
    15:00 +28°C° 0,1 mm 2 m/s 669 mmHg 63%
    16:00 +28°C° 0,1 mm 2 m/s 669 mmHg 61%
    17:00 +26°C° 0,3 mm 2 m/s 669 mmHg 68%
    18:00 +24°C° 0,3 mm 1 m/s 669 mmHg 75%
    19:00 +22°C° 0,3 mm 1 m/s 669 mmHg 82%
    20:00 +22°C° 0 mm 1 m/s 669 mmHg 84%
    21:00 +22°C° 0 mm 1 m/s 669 mmHg 85%
    22:00 +22°C° 0 mm 1 m/s 670 mmHg 86%
    23:00 +21°C° 0,1 mm 1 m/s 670 mmHg 90%

    Mâine, 24 Februarie, Vineri

    Timp Temperatura Precipitaţii Vânt Presiune Umiditate
    00:00 +21°C° 0,1 mm 1 m/s 669 mmHg 93%
    01:00 +20°C° 0,1 mm 1 m/s 669 mmHg 96%
    02:00 +20°C° 0,6 mm 1 m/s 669 mmHg 96%
    03:00 +20°C° 0,6 mm 1 m/s 669 mmHg 97%
    04:00 +20°C° 0,6 mm 1 m/s 669 mmHg 98%
    05:00 +20°C° 0,1 mm 1 m/s 669 mmHg 95%
    06:00 +21°C° 0,1 mm 1 m/s 669 mmHg 93%
    07:00 +22°C° 0,1 mm 1 m/s 670 mmHg 91%
    08:00 +24°C° 0,4 mm 2 m/s 670 mmHg 82%
    09:00 +26°C° 0,4 mm 2 m/s 671 mmHg 73%
    10:00 +28°C° 0,4 mm 2 m/s 671 mmHg 64%
    11:00 +28°C° 0,6 mm 2 m/s 671 mmHg 63%
    12:00 +29°C° 0,6 mm 2 m/s 670 mmHg 61%
    13:00 +30°C° 0,6 mm 2 m/s 670 mmHg 59%
    14:00 +29°C° 1 mm 2 m/s 669 mmHg 65%
    15:00 +28°C° 1 mm 2 m/s 669 mmHg 70%
    16:00 +28°C° 1 mm 1 m/s 668 mmHg 76%
    17:00 +26°C° 0,8 mm 1 m/s 668 mmHg 80%
    18:00 +25°C° 0,8 mm 1 m/s 668 mmHg 84%
    19:00 +23°C° 0,8 mm 1 m/s 669 mmHg 88%
    20:00 +23°C° 0,5 mm 1 m/s 669 mmHg 89%
    21:00 +23°C° 0,5 mm 1 m/s 669 mmHg 90%
    22:00 +22°C° 0,5 mm 1 m/s 670 mmHg 91%
    23:00 +22°C° 0,5 mm 1 m/s 669 mmHg 92%

    Poimâine, 25 Februarie, Sâmbătă

    Timp Temperatura Precipitaţii Vânt Presiune Umiditate
    00:00 +21°C° 0,5 mm 1 m/s 669 mmHg 93%
    01:00 +21°C° 0,5 mm 1 m/s 668 mmHg 95%
    02:00 +21°C° 2,2 mm 1 m/s 668 mmHg 95%
    03:00 +21°C° 2,2 mm 1 m/s 669 mmHg 95%
    04:00 +20°C° 2,2 mm 2 m/s 669 mmHg 96%
    05:00 +20°C° 1,6 mm 2 m/s 669 mmHg 95%
    06:00 +20°C° 1,6 mm 2 m/s 670 mmHg 95%
    07:00 +20°C° 1,6 mm 2 m/s 670 mmHg 95%
    08:00 +22°C° 0,3 mm 1 m/s 670 mmHg 91%
    09:00 +23°C° 0,3 mm 1 m/s 671 mmHg 87%
    10:00 +24°C° 0,3 mm 1 m/s 671 mmHg 83%
    11:00 +25°C° 0,2 mm 1 m/s 671 mmHg 79%
    12:00 +26°C° 0,2 mm 2 m/s 670 mmHg 75%
    13:00 +26°C° 0,2 mm 2 m/s 670 mmHg 71%
    14:00 +26°C° 0,2 mm 2 m/s 669 mmHg 74%
    15:00 +26°C° 0,2 mm 2 m/s 669 mmHg 78%
    16:00 +25°C° 0,2 mm 2 m/s 668 mmHg 81%
    17:00 +24°C° 0 mm 2 m/s 669 mmHg 84%
    18:00 +23°C° 0 mm 1 m/s 669 mmHg 88%
    19:00 +22°C° 0 mm 1 m/s 669 mmHg 92%
    20:00 +22°C° 0 mm 1 m/s 669 mmHg 93%
    21:00 +21°C° 0 mm 1 m/s 670 mmHg 95%
    22:00 +21°C° 0 mm 1 m/s 670 mmHg 96%
    23:00 +20°C° 0 mm 1 m/s 669 mmHg 96%

    26 Februarie, Duminică

    Timp Temperatura Precipitaţii Vânt Presiune Umiditate
    00:00 +20°C° 0 mm 1 m/s 669 mmHg 96%
    01:00 +20°C° 0 mm 1 m/s 668 mmHg 96%
    02:00 +19°C° 0 mm 1 m/s 668 mmHg 96%
    03:00 +19°C° 0 mm 1 m/s 668 mmHg 97%
    04:00 +19°C° 0 mm 1 m/s 668 mmHg 97%
    05:00 +20°C° 0 mm 1 m/s 669 mmHg 95%
    06:00 +18°C° 0 mm 0 m/s 669 mmHg 92%
    07:00 +19°C° 0 mm 0 m/s 670 mmHg 90%
    08:00 +23°C° 0,5 mm 1 m/s 670 mmHg 85%
    09:00 +25°C° 0,5 mm 1 m/s 670 mmHg 81%
    10:00 +26°C° 0,5 mm 2 m/s 671 mmHg 76%
    11:00 +27°C° 0,7 mm 2 m/s 670 mmHg 75%
    12:00 +27°C° 0,7 mm 2 m/s 669 mmHg 74%
    13:00 +27°C° 0,7 mm 2 m/s 668 mmHg 73%
    14:00 +27°C° 1,5 mm 2 m/s 668 mmHg 76%
    15:00 +27°C° 1,5 mm 2 m/s 667 mmHg 80%
    16:00 +26°C° 1,5 mm 2 m/s 667 mmHg 83%
    17:00 +25°C° 1 mm 2 m/s 667 mmHg 87%
    18:00 +24°C° 1 mm 1 m/s 667 mmHg 91%
    19:00 +22°C° 1 mm 1 m/s 668 mmHg 95%
    20:00 +22°C° 0,7 mm 1 m/s 668 mmHg 95%
    21:00 +22°C° 0,7 mm 1 m/s 668 mmHg 96%
    22:00 +22°C° 0,7 mm 1 m/s 669 mmHg 96%
    23:00 +21°C° 0,2 mm 1 m/s 668 mmHg 96%

    27 Februarie, Luni

    Timp Temperatura Precipitaţii Vânt Presiune Umiditate
    00:00 +21°C° 0,2 mm 1 m/s 668 mmHg 96%
    01:00 +21°C° 0,2 mm 1 m/s 667 mmHg 97%
    02:00 +21°C° 0 mm 1 m/s 667 mmHg 97%
    03:00 +21°C° 0 mm 1 m/s 667 mmHg 96%
    04:00 +20°C° 0 mm 1 m/s 667 mmHg 96%
    05:00 +21°C° 0 mm 1 m/s 668 mmHg 95%
    06:00 +21°C° 0 mm 1 m/s 668 mmHg 94%
    07:00 +22°C° 0 mm 1 m/s 669 mmHg 93%
    08:00 +23°C° 0 mm 2 m/s 669 mmHg 83%
    09:00 +25°C° 0 mm 2 m/s 670 mmHg 74%
    10:00 +27°C° 0 mm 2 m/s 670 mmHg 64%
    11:00 +28°C° 0,1 mm 2 m/s 669 mmHg 60%
    12:00 +29°C° 0,1 mm 2 m/s 669 mmHg 55%
    13:00 +30°C° 0,1 mm 3 m/s 668 mmHg 51%
    14:00 +30°C° 0,1 mm 3 m/s 668 mmHg 54%
    15:00 +29°C° 0,1 mm 3 m/s 667 mmHg 57%
    16:00 +29°C° 0,1 mm 3 m/s 667 mmHg 59%
    17:00 +27°C° 0 mm 2 m/s 667 mmHg 68%
    18:00 +25°C° 0 mm 2 m/s 667 mmHg 76%
    19:00 +23°C° 0 mm 1 m/s 667 mmHg 84%
    20:00 +23°C° 0,1 mm 1 m/s 668 mmHg 85%
    21:00 +22°C° 0,1 mm 1 m/s 668 mmHg 86%
    22:00 +22°C° 0,1 mm 1 m/s 668 mmHg 86%
    23:00 +22°C° 0,2 mm 1 m/s 668 mmHg 88%

    28 Februarie, Marţi

    Timp Temperatura Precipitaţii Vânt Presiune Umiditate
    00:00 +21°C° 0,2 mm 1 m/s 667 mmHg 91%
    01:00 +21°C° 0,2 mm 1 m/s 667 mmHg 93%
    02:00 +20°C° 0 mm 1 m/s 667 mmHg 93%
    03:00 +20°C° 0 mm 1 m/s 667 mmHg 94%
    04:00 +20°C° 0 mm 1 m/s 667 mmHg 94%
    05:00 +21°C° 0 mm 1 m/s 668 mmHg 91%
    06:00 +21°C° 0 mm 1 m/s 668 mmHg 89%
    07:00 +22°C° 0 mm 1 m/s 669 mmHg 86%
    08:00 +24°C° 0 mm 1 m/s 669 mmHg 75%
    09:00 +27°C° 0 mm 1 m/s 670 mmHg 64%
    10:00 +29°C° 0 mm 1 m/s 670 mmHg 53%
    11:00 +30°C° 0 mm 2 m/s 670 mmHg 49%
    12:00 +31°C° 0 mm 2 m/s 669 mmHg 45%
    13:00 +32°C° 0 mm 2 m/s 668 mmHg 42%
    14:00 +31°C° 0,3 mm 2 m/s 668 mmHg 48%
    15:00 +30°C° 0,3 mm 2 m/s 668 mmHg 55%
    16:00 +30°C° 0,3 mm 2 m/s 667 mmHg 61%
    17:00 +27°C° 0,3 mm 2 m/s 667 mmHg 70%
    18:00 +25°C° 0,3 mm 2 m/s 668 mmHg 79%
    19:00 +23°C° 0,3 mm 2 m/s 668 mmHg 88%
    20:00 +21°C° 0 mm 2 m/s 668 mmHg 90%
    21:00 +21°C° 0 mm 2 m/s 669 mmHg 92%
    22:00 +21°C° 0 mm 2 m/s 669 mmHg 94%
    23:00 +21°C° 0,1 mm 1 m/s 669 mmHg 95%
    Arată mai mult